Zurück zum Katalog

STARLINK-3574

AktivKommunikationVLEO
NORAD 51874·PAYLOAD·🇺🇸 United States

Gestartet Mar 3, 2022 von Cape Canaveral Space Force Station

Loading…

Nächste Überflüge (nächste 24 Stunden)

TLE

AktuellSource: CelesTrak SupGP

Epoche: Sep 15, 2026, 01:22 UTC

1 51874C 22022Y   26258.05743056 -.00029099  00000+0 -83245-3 0  2589
2 51874  53.1578 229.0297 0001345  91.0659  35.0306 15.35416951    18

Verfolge STARLINK-3574 in Echtzeit mit AllMySat

Download on the App Store